Location: Unspecified
(0.0000°N, 0.0000°E)
Time: 17:58:47
(UTC+00:00)

STARLINK 1037 - Pass Details

Date: 17 January 2020
Orbit: 436 x 438 km, 53.0° (Epoch: 18 January)

Event Time Altitude Azimuth Distance (km) Brightness Sun altitude
Rises 05:12:57 0° 203° (SSW) 2,408 6.9 -13.3°
Maximum altitude 05:18:25 41° 124° (SE) 637 4.6 -12.0°
Drops below altitude 10° 05:21:42 10° 52° (NE) 1,531 6.3 -11.2°
Sets 05:23:52 0° 45° (NE) 2,395 7.2 -10.7°
